Вернуться в каталог

STARLINK-11739

АктивенСвязьVLEO
NORAD 64374·PAYLOAD·🇺🇸 United States

Запущен Jun 13, 2025 с Cape Canaveral Space Force Station

Loading…

Ближайшие Пролёты (ближайшие 24 часа)

TLE

СвежийSource: CelesTrak SupGP

Эпоха: Sep 14, 2026, 21:08 UTC

1 64374C 25127E   26257.88104167  .00092518  00000+0  71829-3 0  2579
2 64374  43.0007  23.7644 0001804 270.1825  17.5716 15.70801858    15

Отслеживайте STARLINK-11739 в реальном времени с AllMySat

Download on the App Store